Flag for Namibia

Past Weather in Swakopmund, Namibia — Yesterday and Last 2 Weeks

Now
50 °F

Cool.


Feels Like: 46 °F
Forecast: 62 / 56 °F
Wind: 12 mph from North

Location: Walvis Bay
Current Time: Sep 22, 2020 at 2:20:33 am
Latest Report: Sep 22, 2020 at 1:00 am
Visibility: N/A
Pressure30.01 "Hg
Humidity: 94%
Dew Point: 48 °F
Location of SwakopmundLocation

Past Weather in Swakopmund — Graph

°F

Swakopmund Temperature Yesterday

Maximum temperature yesterday: 72 °F (at 4:00 pm)
Minimum temperature yesterday: 45 °F (at 7:00 am)
Average temperature yesterday: 56 °F

High & Low Weather Summary for the Past Weeks

 TemperatureHumidityPressure
High104 °F (Sep 10, 1:00 pm)100% (Sep 9, 2:00 am)30.18 "Hg (Sep 9, 2:00 am)
Low45 °F (Sep 15, 5:00 am)8% (Sep 10, 1:00 pm)29.89 "Hg (Sep 7, 4:00 am)
Average59 °F75%30.03 "Hg
* Reported Sep 7 1:00 am — Sep 22 1:00 am, Swakopmund. Weather by CustomWeather, © 2020

Note: Actual official high and low records may vary slightly from our data, if they occured in-between our weather recording intervals... More about our weather records

Swakopmund Weather History for the Previous 24 Hours

Scroll right to see more
 ConditionsComfort  
Time TempWeatherWind HumidityBarometerVisibility
1:00 am
Tue, Sep 22
50 °FCool.12 mph94%30.01 "HgN/A
12:00 am50 °FCool.12 mph94%30.01 "HgN/A
11:00 pm
Mon, Sep 21
52 °FCool.13 mph94%30.01 "HgN/A
10:00 pm52 °FCool.13 mph94%30.01 "HgN/A
9:00 pm55 °FCool.13 mph82%29.98 "HgN/A
8:00 pm59 °FCool.7 mph68%29.95 "HgN/A
7:00 pm63 °FMild.8 mph59%29.92 "HgN/A
6:00 pm66 °FSunny.10 mph52%29.92 "Hg10 mi
5:00 pm70 °FSunny.10 mph50%29.92 "Hg10 mi
4:00 pm72 °FMild.9 mph44%29.92 "HgN/A
3:00 pm70 °FSunny.8 mph50%29.95 "Hg10 mi
2:00 pm68 °FSunny.6 mph53%29.98 "Hg10 mi
1:00 pm66 °FSunny.5 mph56%29.98 "Hg10 mi
12:00 pm63 °FSunny.6 mph64%30.04 "Hg10 mi
11:00 am59 °FSunny.7 mph68%30.04 "Hg10 mi
10:00 am54 °FCool.6 mph82%30.04 "HgN/A
9:00 am48 °FFog.6 mph94%30.07 "Hg1 mi
8:00 am45 °FFog.5 mph100%30.04 "Hg0 mi
7:00 am45 °FSunny.3 mph93%30.01 "Hg10 mi
6:00 am46 °FClear.9 mph93%30.01 "Hg10 mi
5:00 am48 °FCool.9 mph94%30.01 "HgN/A
4:00 am48 °FCool.9 mph87%30.01 "HgN/A
3:00 am48 °FCool.8 mph87%30.01 "HgN/A
2:00 am48 °FCool.7 mph87%30.04 "HgN/A
Weather by CustomWeather, © 2020

See weather overview